User: anonymous   Login
Location: Rybnik
(50.1167°N, 18.5333°E)
Time: 17:10:56
(UTC+02:00)
Language:

ISS - Orbit

View from above orbital plane
View from above orbital plane
View from above satellite
View from above satellite

Ground track
Ground track

The orbit data is extracted from the following two-line orbital elements,

1 25544U 98067A   22274.46188292  .00014869  00000-0  26380-3 0  9997
2 25544  51.6447 170.0519 0002623 316.7478 215.0466 15.50450812361668
Epoch (UTC): 01 October 2022 11:05:06
Eccentricity: 0.0002623
inclination: 51.6447°
perigee height: 413 km
apogee height: 417 km
right ascension of ascending node: 170.0519°
argument of perigee: 316.7478°
revolutions per day: 15.50450812
mean anomaly at epoch: 215.0466°
orbit number at epoch: 36166

The dashed part of the orbit path shows where the satellite is in the earth's shadow,  

DLR